Location: Gälforsberget
(66.6500°N, 22.4167°E)
Time: 09:50:23
(UTC+00:00)

USA 234 - Pass Details

Date: 11 April 2026
Orbit: 1102 x 1106 km, 123.0° (Epoch: 4 January)

Event Time Altitude Azimuth Distance (km) Brightness Sun altitude
Rises 19:21:45 0° 87° (E) 3,927 5.7 -7.4°
Reaches altitude 10° 19:24:32 10° 96° (E) 2,968 5.1 -7.6°
Maximum altitude 19:30:22 33° 159° (SSE) 1,759 3.9 -8.0°
Drops below altitude 10° 19:36:12 10° 223° (SW) 2,966 5.5 -8.4°
Sets 19:38:59 0° 232° (SW) 3,923 6.2 -8.6°
